Precipitable_Water
0.87 0.87 0.85 0.84 0.83 0.84 0.83 0.82 0.82 0.81 0.83 0.85 0.84 0.87 0.89 0.92 0.95 0.95 0.96 0.98 0.99 0.99 0.99 1.00 1.01 1.01 1.02 1.02 1.00 0.99 0.97 0.97 1.00 1.06 1.07 1.08 1.09 1.11 1.12 1.19 1.24 1.25
0.82 0.83 0.83 0.82 0.82 0.83 0.84 0.85 0.83 0.83 0.83 0.85 0.86 0.88 0.91 0.93 0.94 0.93 0.91 0.91 0.92 0.92 0.93 0.94 0.96 0.97 0.95 0.92 0.92 0.91 0.93 0.97 0.97 1.05 1.04 1.04 1.08 1.12 1.14 1.20 1.25 1.29
0.79 0.79 0.78 0.76 0.76 0.76 0.77 0.78 0.78 0.78 0.79 0.81 0.84 0.85 0.86 0.90 0.88 0.90 0.90 0.87 0.83 0.84 0.86 0.89 0.90 0.90 0.89 0.91 0.95 0.97 0.97 0.95 0.94 1.00 1.03 1.05 1.12 1.14 1.18 1.22 1.25 1.25
0.78 0.77 0.76 0.76 0.76 0.74 0.75 0.74 0.75 0.76 0.78 0.78 0.78 0.82 0.83 0.86 0.86 0.86 0.87 0.84 0.83 0.84 0.86 0.86 0.85 0.84 0.89 0.92 0.94 0.95 0.97 0.96 0.99 1.03 1.04 1.07 1.11 1.13 1.15 1.21 1.25 1.27
0.75 0.74 0.74 0.74 0.74 0.72 0.71 0.70 0.70 0.72 0.73 0.76 0.79 0.83 0.82 0.83 0.85 0.86 0.86 0.84 0.84 0.84 0.84 0.83 0.83 0.85 0.87 0.88 0.90 0.90 0.92 0.93 0.99 1.03 1.03 1.04 1.11 1.15 1.17 1.20 1.22 1.22
0.75 0.74 0.73 0.72 0.72 0.71 0.69 0.68 0.68 0.69 0.72 0.74 0.77 0.81 0.82 0.84 0.84 0.84 0.84 0.83 0.83 0.82 0.81 0.81 0.81 0.83 0.83 0.85 0.86 0.87 0.88 0.89 0.94 0.99 1.01 1.03 1.09 1.17 1.20 1.22 1.22 1.22
0.73 0.72 0.70 0.71 0.71 0.71 0.69 0.68 0.69 0.69 0.70 0.73 0.76 0.78 0.81 0.81 0.82 0.83 0.84 0.84 0.82 0.79 0.79 0.78 0.78 0.79 0.80 0.80 0.81 0.83 0.85 0.88 0.91 0.95 0.98 1.03 1.07 1.11 1.19 1.23 1.27 1.28
0.72 0.72 0.70 0.69 0.69 0.70 0.69 0.69 0.69 0.69 0.71 0.72 0.72 0.74 0.76 0.77 0.78 0.81 0.81 0.84 0.81 0.78 0.77 0.77 0.76 0.77 0.77 0.76 0.76 0.78 0.81 0.85 0.87 0.90 0.94 0.99 1.06 1.09 1.17 1.24 1.29 1.29
0.71 0.70 0.69 0.68 0.67 0.68 0.69 0.69 0.69 0.70 0.71 0.70 0.70 0.71 0.74 0.75 0.76 0.76 0.76 0.78 0.77 0.76 0.76 0.75 0.74 0.74 0.75 0.76 0.75 0.75 0.76 0.80 0.83 0.86 0.89 0.94 1.00 1.07 1.15 1.23 1.26 1.31
0.68 0.68 0.67 0.66 0.65 0.67 0.67 0.69 0.70 0.71 0.72 0.70 0.70 0.71 0.70 0.72 0.74 0.75 0.75 0.74 0.73 0.71 0.73 0.73 0.73 0.73 0.73 0.75 0.75 0.74 0.74 0.75 0.79 0.83 0.88 0.94 0.99 1.05 1.13 1.19 1.24 1.28
0.65 0.65 0.64 0.64 0.65 0.66 0.67 0.69 0.70 0.71 0.73 0.72 0.71 0.70 0.71 0.71 0.71 0.72 0.71 0.71 0.70 0.68 0.67 0.67 0.69 0.72 0.72 0.73 0.75 0.76 0.75 0.75 0.77 0.81 0.85 0.93 1.01 1.08 1.14 1.20 1.25 1.30
0.62 0.62 0.61 0.62 0.64 0.65 0.66 0.67 0.68 0.70 0.71 0.73 0.72 0.71 0.70 0.70 0.68 0.69 0.69 0.69 0.70 0.68 0.67 0.67 0.67 0.68 0.70 0.71 0.73 0.75 0.77 0.78 0.78 0.80 0.85 0.91 0.99 1.08 1.13 1.20 1.25 1.30
0.62 0.61 0.62 0.62 0.63 0.63 0.64 0.64 0.64 0.65 0.66 0.67 0.70 0.69 0.67 0.66 0.67 0.67 0.68 0.68 0.68 0.67 0.66 0.65 0.65 0.66 0.67 0.69 0.72 0.74 0.76 0.78 0.79 0.80 0.84 0.90 0.97 1.05 1.12 1.18 1.24 1.31
0.62 0.62 0.63 0.63 0.63 0.63 0.62 0.61 0.60 0.59 0.60 0.62 0.64 0.64 0.63 0.62 0.62 0.62 0.64 0.65 0.64 0.64 0.64 0.64 0.63 0.63 0.64 0.65 0.69 0.72 0.75 0.79 0.81 0.82 0.83 0.88 0.95 1.02 1.10 1.15 1.21 1.28
0.62 0.61 0.60 0.60 0.61 0.60 0.58 0.57 0.56 0.55 0.55 0.54 0.55 0.57 0.58 0.59 0.59 0.59 0.59 0.59 0.60 0.60 0.61 0.61 0.61 0.60 0.61 0.61 0.63 0.68 0.74 0.77 0.81 0.84 0.85 0.86 0.91 0.99 1.08 1.14 1.20 1.27
0.57 0.56 0.54 0.53 0.52 0.53 0.53 0.52 0.51 0.49 0.48 0.47 0.48 0.50 0.51 0.53 0.53 0.54 0.55 0.55 0.55 0.56 0.57 0.58 0.58 0.60 0.60 0.61 0.62 0.64 0.68 0.73 0.79 0.83 0.86 0.88 0.89 0.92 0.99 1.06 1.11 1.17
0.48 0.47 0.46 0.45 0.45 0.46 0.47 0.47 0.45 0.43 0.41 0.40 0.40 0.42 0.44 0.45 0.45 0.44 0.46 0.48 0.50 0.52 0.53 0.55 0.56 0.58 0.58 0.59 0.60 0.62 0.65 0.69 0.72 0.78 0.84 0.85 0.87 0.87 0.90 0.96 1.02 1.07
0.42 0.39 0.36 0.37 0.39 0.38 0.39 0.41 0.41 0.39 0.36 0.35 0.36 0.36 0.38 0.39 0.38 0.37 0.38 0.39 0.41 0.44 0.46 0.49 0.52 0.55 0.56 0.57 0.58 0.60 0.62 0.66 0.69 0.73 0.77 0.82 0.83 0.85 0.88 0.91 0.95 1.01
0.38 0.35 0.33 0.32 0.32 0.33 0.34 0.35 0.36 0.35 0.33 0.31 0.32 0.35 0.36 0.34 0.34 0.34 0.34 0.35 0.36 0.36 0.37 0.41 0.45 0.49 0.51 0.54 0.56 0.58 0.60 0.63 0.66 0.70 0.72 0.75 0.81 0.83 0.84 0.87 0.91 0.96
0.36 0.34 0.33 0.31 0.31 0.30 0.30 0.30 0.30 0.30 0.30 0.31 0.32 0.34 0.34 0.33 0.31 0.30 0.31 0.31 0.33 0.34 0.34 0.36 0.38 0.42 0.45 0.48 0.51 0.55 0.58 0.60 0.62 0.65 0.69 0.71 0.75 0.81 0.83 0.84 0.87 0.90
0.34 0.33 0.31 0.30 0.29 0.29 0.28 0.28 0.27 0.27 0.27 0.28 0.29 0.30 0.31 0.30 0.28 0.28 0.28 0.29 0.31 0.32 0.32 0.33 0.35 0.38 0.39 0.42 0.46 0.50 0.54 0.58 0.60 0.62 0.65 0.68 0.72 0.75 0.80 0.83 0.84 0.87
0.33 0.32 0.30 0.29 0.28 0.27 0.26 0.25 0.25 0.25 0.25 0.27 0.28 0.29 0.28 0.27 0.27 0.26 0.26 0.26 0.28 0.29 0.29 0.29 0.33 0.35 0.36 0.36 0.40 0.44 0.49 0.53 0.57 0.59 0.60 0.63 0.67 0.71 0.74 0.79 0.83 0.85
0.32 0.31 0.29 0.27 0.26 0.25 0.25 0.24 0.23 0.23 0.24 0.25 0.24 0.25 0.25 0.25 0.25 0.24 0.24 0.24 0.24 0.25 0.26 0.28 0.30 0.34 0.35 0.35 0.35 0.38 0.42 0.46 0.50 0.55 0.58 0.60 0.62 0.66 0.70 0.73 0.77 0.82
0.31 0.29 0.28 0.26 0.26 0.25 0.25 0.25 0.25 0.24 0.24 0.25 0.23 0.23 0.24 0.25 0.25 0.23 0.22 0.23 0.22 0.23 0.25 0.26 0.29 0.32 0.34 0.35 0.35 0.36 0.37 0.40 0.44 0.48 0.52 0.57 0.60 0.63 0.67 0.70 0.73 0.76
0.30 0.29 0.28 0.26 0.25 0.26 0.26 0.25 0.25 0.24 0.25 0.25 0.24 0.24 0.24 0.25 0.25 0.23 0.22 0.22 0.23 0.24 0.24 0.25 0.28 0.31 0.33 0.35 0.36 0.37 0.36 0.37 0.39 0.43 0.46 0.51 0.56 0.59 0.63 0.66 0.68 0.72
0.30 0.29 0.28 0.26 0.26 0.26 0.26 0.26 0.27 0.26 0.25 0.25 0.25 0.25 0.24 0.24 0.25 0.24 0.22 0.22 0.23 0.24 0.24 0.26 0.28 0.30 0.33 0.35 0.37 0.38 0.38 0.36 0.36 0.37 0.39 0.45 0.51 0.55 0.58 0.62 0.65 0.68
Wind_Speed
17 17 18 18 18 18 18 18 18 18 18 18 19 19 20 20 21 21 21 22 22 22 22 23 23 24 25 25 26 27 28 29 29 30 30 30 31 31 30 30 30 29
16 17 17 18 18 19 19 19 19 19 19 19 20 20 20 21 21 22 22 22 23 23 23 24 24 25 25 26 27 28 29 29 30 30 30 30 30 30 30 30 29 29
16 17 17 18 18 19 19 19 19 20 20 20 20 21 21 22 22 22 22 22 23 24 24 24 24 25 26 27 27 27 28 29 29 29 29 29 29 29 28 28 28 28
17 17 18 18 18 18 19 19 19 20 20 20 21 21 22 22 22 22 22 23 24 24 24 24 24 25 25 26 26 27 27 28 28 28 28 28 28 28 28 27 26 26
17 17 17 18 18 18 19 19 19 20 20 21 21 21 22 22 23 23 23 24 24 24 24 24 24 25 25 25 26 26 27 27 28 28 28 28 28 28 27 27 26 25
17 18 18 18 18 18 19 19 19 20 20 21 21 22 22 23 23 24 24 24 25 25 24 24 25 25 25 26 26 26 27 27 28 28 28 28 27 27 27 26 25 25
17 18 18 18 18 18 18 19 19 20 21 21 22 22 23 23 24 24 25 25 25 25 25 25 25 26 26 26 26 27 27 27 28 28 28 27 27 26 26 25 24 24
18 18 18 18 18 18 19 19 20 21 21 22 22 23 23 23 24 24 24 25 25 26 25 25 26 26 26 27 27 27 27 27 28 28 28 27 26 25 24 23 23 22
18 18 18 18 18 18 19 20 21 21 22 22 23 23 24 24 24 24 25 25 26 26 26 26 27 27 27 27 27 28 28 28 28 27 27 27 25 25 24 23 22 21
18 18 18 19 19 19 20 21 21 22 22 22 23 24 24 25 25 25 25 25 26 27 27 27 27 28 28 28 28 28 28 28 27 27 27 26 25 24 23 22 21 21
17 18 18 19 20 20 21 22 22 23 23 24 24 24 25 25 25 25 26 26 26 27 27 27 28 28 29 29 29 29 29 28 27 26 26 25 24 23 23 22 21 21
17 18 18 19 20 20 21 22 23 24 24 25 25 25 25 26 26 26 26 26 26 26 27 27 28 28 29 29 30 30 29 28 27 26 26 25 24 23 23 22 21 21
17 18 19 19 20 21 21 22 23 24 24 25 25 25 25 26 26 26 26 26 26 26 27 27 27 27 28 29 29 29 28 28 27 26 26 24 23 22 22 22 21 20
18 18 19 20 20 21 22 22 23 24 24 24 25 25 25 25 25 25 25 25 25 26 26 27 27 27 27 28 28 28 28 27 27 26 26 25 23 22 22 22 21 20
18 19 20 20 21 21 22 23 23 24 24 24 24 24 24 25 25 25 25 25 25 26 26 26 27 27 27 27 28 28 27 27 27 26 26 25 24 22 22 21 20 19
18 19 20 21 21 22 22 23 23 24 24 24 24 24 24 24 25 25 25 25 26 26 26 26 26 27 28 28 28 27 27 27 27 26 26 25 24 22 22 21 20 19
18 19 20 21 21 21 22 22 23 24 24 25 25 24 24 25 25 26 26 26 26 27 27 27 27 27 28 29 28 28 27 26 26 26 26 25 23 22 22 22 21 20
18 18 19 20 20 21 21 22 22 23 24 24 25 25 25 25 26 26 27 27 27 27 28 27 28 28 29 29 29 29 28 27 26 26 26 25 24 23 22 22 22 21
17 17 18 19 19 20 21 21 22 23 24 24 25 25 26 26 27 27 27 28 28 28 28 28 29 29 30 30 29 29 28 27 26 26 26 25 24 23 22 22 22 22
16 17 18 19 19 20 21 21 22 23 24 24 25 26 26 27 28 28 28 29 29 29 29 29 29 30 30 30 30 30 29 27 26 25 26 26 25 24 23 22 22 22
15 16 17 18 19 20 20 21 22 23 24 24 25 26 26 28 29 29 29 30 30 30 30 30 30 31 31 31 30 30 29 28 27 26 25 26 26 25 24 23 23 23
15 16 17 18 19 20 21 22 23 24 24 24 25 25 26 27 28 29 30 30 31 31 31 31 31 31 31 31 31 31 30 28 27 27 26 26 26 25 24 24 23 23
15 16 17 18 19 20 21 22 23 23 24 25 25 26 26 27 28 29 30 31 31 31 32 32 32 32 32 31 31 31 30 29 28 28 28 27 26 26 25 24 24 23
14 15 16 17 18 19 20 21 22 23 24 25 26 26 27 28 29 30 30 31 31 31 32 32 32 32 32 31 31 31 30 29 29 29 29 28 28 27 26 24 24 23
14 15 16 17 18 19 20 21 22 23 24 25 26 27 28 28 30 31 31 32 32 32 32 31 31 32 32 31 31 31 30 29 29 29 29 29 29 28 27 26 24 24
13 14 15 16 18 19 20 21 22 23 24 26 27 27 28 29 30 31 32 32 32 32 31 31 31 31 32 31 31 31 30 29 28 28 28 29 29 28 28 27 26 25
Wind_Direction
298 300 300 300 300 302 303 304 304 304 302 300 298 298 297 298 299 299 299 298 299 299 300 300 299 299 299 300 300 300 300 300 300 300 299 298 297 294 289 284 278 274
301 302 302 302 302 303 304 304 305 304 303 301 300 299 298 298 299 300 300 299 299 300 300 300 300 300 300 301 300 300 300 301 301 301 300 299 298 296 291 285 279 274
303 302 303 303 304 305 305 305 304 303 302 301 300 299 298 298 300 300 301 301 301 300 300 301 302 302 302 302 302 301 302 302 303 303 302 300 299 297 293 287 281 274
303 304 303 303 305 307 308 308 306 304 303 303 302 301 300 300 301 301 301 302 301 301 301 302 303 304 305 305 305 304 304 304 305 305 303 302 301 299 295 289 282 275
304 305 304 304 305 308 310 311 310 309 307 305 304 303 302 302 302 302 301 301 302 303 303 304 305 306 306 307 307 307 306 306 306 306 304 303 302 300 296 290 283 276
304 306 306 306 306 309 311 312 312 311 310 308 306 305 303 302 302 302 301 301 303 304 304 304 305 306 307 307 308 308 308 308 308 308 306 304 302 301 297 291 284 275
304 306 307 307 307 309 311 312 312 312 311 309 308 307 306 305 303 302 301 301 303 305 305 305 305 306 306 307 307 308 308 308 309 309 308 305 303 301 299 293 285 276
302 305 306 307 308 309 310 311 312 312 311 310 309 308 308 307 305 303 302 301 303 305 305 305 305 305 306 306 307 308 308 308 309 310 309 307 305 303 300 295 287 277
300 303 306 308 309 309 309 310 310 311 311 310 309 309 308 308 307 306 304 302 303 306 306 306 305 305 306 306 307 308 307 307 308 309 309 308 306 303 301 296 288 279
301 303 306 309 309 309 309 309 309 309 310 311 310 309 308 308 308 306 305 303 304 306 307 306 306 305 306 306 306 307 307 306 307 307 308 308 306 304 302 297 289 280
305 307 309 311 310 309 309 308 308 308 308 309 309 309 309 309 309 307 305 304 304 306 306 307 307 306 306 306 306 306 305 305 305 306 306 306 305 304 302 298 290 282
308 309 311 312 312 312 311 310 310 310 309 309 309 310 309 309 309 308 307 306 305 306 306 307 307 306 305 305 305 305 305 304 304 305 306 305 304 302 301 298 291 284
308 309 310 312 312 312 313 313 314 314 313 312 311 311 311 311 310 309 308 307 306 306 307 308 308 307 306 305 305 305 304 303 303 304 305 305 304 302 300 297 293 286
307 309 310 310 310 312 313 315 316 317 316 315 314 314 314 314 313 312 310 309 308 308 308 308 309 309 309 308 307 306 304 303 302 302 303 304 304 302 300 297 293 288
306 308 310 310 310 311 313 315 317 318 318 318 317 316 316 316 315 314 313 312 311 310 309 309 309 310 311 311 309 307 305 302 301 300 301 302 302 301 299 297 293 289
308 309 311 312 312 312 313 316 317 318 318 318 318 317 316 317 317 316 316 314 313 312 311 310 310 310 311 312 311 309 306 303 300 298 298 299 300 299 298 296 294 290
311 312 313 314 314 314 314 315 317 318 318 318 318 317 316 316 316 316 316 315 314 313 313 311 311 311 312 311 311 311 308 304 300 298 296 296 298 297 295 294 293 289
313 315 318 318 316 316 316 315 316 318 319 319 318 318 317 316 316 316 315 315 314 313 313 312 311 312 312 311 310 310 309 305 301 298 295 294 294 294 293 291 290 288
316 319 322 322 320 319 318 318 319 319 320 320 319 318 318 318 317 316 316 315 314 313 312 311 311 312 312 310 309 308 307 305 301 298 295 293 292 291 290 288 287 286
318 320 323 324 324 323 323 324 324 323 322 321 320 319 319 319 318 317 316 315 314 312 311 310 310 311 311 310 309 308 306 303 301 297 295 294 292 289 288 287 285 284
320 322 324 326 327 327 328 328 327 326 325 324 322 321 320 319 319 318 316 314 313 312 311 309 309 310 310 309 308 307 305 301 299 296 294 293 292 289 287 285 284 283
322 325 327 328 329 330 331 331 331 330 329 327 326 324 323 322 321 320 318 316 313 312 311 309 308 308 308 307 306 306 304 300 297 295 293 292 291 290 288 284 282 281
325 328 330 331 332 333 333 334 334 334 333 332 331 329 328 327 326 324 322 319 316 314 312 310 308 308 307 306 305 304 302 299 296 294 291 290 290 289 287 284 281 280
328 330 333 334 335 336 336 337 337 337 337 336 335 334 332 331 330 329 326 324 321 317 314 312 310 309 308 306 305 304 301 298 296 293 290 288 287 287 286 284 282 280
330 333 336 337 338 339 339 339 339 339 339 338 338 337 335 334 333 332 330 328 325 322 318 315 313 311 310 308 306 304 302 298 295 293 290 288 286 285 284 283 281 280
334 336 338 340 341 341 341 340 340 340 340 340 340 339 338 337 336 335 334 332 330 326 322 318 316 314 312 310 307 305 303 299 296 293 290 287 285 284 283 282 280 279